Location: Haieshausen
(51.8387°N, 9.9720°E)
Time: 04:02:28
(UTC+00:00)

Cosmos 1515 - Pass Details

Date: 14 July 2020
Orbit: 507 x 515 km, 82.5° (Epoch: 10 August)

Event Time Altitude Azimuth Distance (km) Brightness Sun altitude
Rises 01:07:45 0° 344° (NNW) 2,642 8.1 -13.2°
Reaches altitude 10° 01:09:57 10° 337° (NNW) 1,752 7.0 -13.1°
Maximum altitude 01:13:35 41° 266° (W) 754 4.3 -12.9°
Enters shadow 01:15:43 21° 207° (SSW) 1,197 4.9 -12.7°
